Location: Córrego Montividiu
(13.2496°S, 48.8603°W)
Time: 11:06:42
(UTC+00:00)

SKYMED 3 - Pass Details

Date: 11 March 2026
Orbit: 535 x 559 km, 97.8° (Epoch: 22 April)

Event Time Altitude Azimuth Distance (km) Brightness Sun altitude
Exits shadow 22:43:14 42° 73° (ENE) 779 4.6 -18.1°
Maximum altitude 22:43:51 46° 103° (ESE) 730 4.5 -18.2°
Drops below altitude 10° 22:47:35 10° 176° (S) 1,802 7.0 -19.1°
Sets 22:49:45 0° 182° (S) 2,696 8.0 -19.6°
